Time,TemperatureF,DewpointF,PressureIn,WindDirection,WindDirectionDegrees,WindSpeedMPH,WindSpeedGustMPH,Humidity,HourlyPrecipIn,Conditions,Clouds,dailyrainin,SolarRadiationWatts/m^2,SoftwareType,DateUTC
2013-05-24 00:00:00,39.0,37.0,-100.00,NW,315,3.0,-999.0,91,-99.99,,,-99.99,0.000000,,2013-05-24 04:00:00,
2013-05-24 00:33:00,39.0,37.0,-100.00,NW,315,3.0,-999.0,91,-99.99,,,-99.99,0.000000,,2013-05-24 04:33:00,
2013-05-24 00:42:00,39.0,37.0,-100.00,NW,315,3.0,-999.0,91,-99.99,,,-99.99,0.000000,,2013-05-24 04:42:00,
2013-05-24 00:53:00,39.0,37.0,-100.00,NW,315,3.0,-999.0,91,-99.99,,,-99.99,0.000000,,2013-05-24 04:53:00,
2013-05-24 01:00:00,40.0,38.0,-100.00,North,0,4.0,-999.0,92,-99.99,,,-99.99,0.000000,,2013-05-24 05:00:00,
2013-05-24 01:32:00,40.0,38.0,-100.00,North,0,4.0,-999.0,92,-99.99,,,-99.99,0.000000,,2013-05-24 05:32:00,
2013-05-24 01:42:00,40.0,38.0,-100.00,North,0,4.0,-999.0,92,-99.99,,,-99.99,0.000000,,2013-05-24 05:42:00,
2013-05-24 01:52:00,40.0,38.0,-100.00,North,0,4.0,-999.0,92,-99.99,,,-99.99,0.000000,,2013-05-24 05:52:00,
2013-05-24 02:00:00,39.0,36.0,-100.00,North,0,6.0,-999.0,90,-99.99,,,-99.99,0.000000,,2013-05-24 06:00:00,
2013-05-24 02:32:00,39.0,36.0,-100.00,North,0,6.0,-999.0,90,-99.99,,,-99.99,0.000000,,2013-05-24 06:32:00,
2013-05-24 02:42:00,39.0,36.0,-100.00,North,0,6.0,-999.0,90,-99.99,,,-99.99,0.000000,,2013-05-24 06:42:00,
2013-05-24 02:52:00,39.0,36.0,-100.00,North,0,6.0,-999.0,90,-99.99,,,-99.99,0.000000,,2013-05-24 06:52:00,
2013-05-24 03:00:00,38.0,35.0,-100.00,North,0,5.0,-999.0,88,-99.99,,,-99.99,0.000000,,2013-05-24 07:00:00,
2013-05-24 03:32:00,38.0,35.0,-100.00,North,0,5.0,-999.0,88,-99.99,,,-99.99,0.000000,,2013-05-24 07:32:00,
2013-05-24 03:42:00,38.0,35.0,-100.00,North,0,5.0,-999.0,88,-99.99,,,-99.99,0.000000,,2013-05-24 07:42:00,
2013-05-24 03:52:00,38.0,35.0,-100.00,North,0,5.0,-999.0,88,-99.99,,,-99.99,0.000000,,2013-05-24 07:52:00,
2013-05-24 04:00:00,36.0,33.0,-100.00,North,0,4.0,-999.0,87,-99.99,,,-99.99,0.000000,,2013-05-24 08:00:00,
2013-05-24 04:33:00,36.0,33.0,-100.00,North,0,4.0,-999.0,87,-99.99,,,-99.99,0.000000,,2013-05-24 08:33:00,
2013-05-24 04:42:00,36.0,33.0,-100.00,North,0,4.0,-999.0,87,-99.99,,,-99.99,0.000000,,2013-05-24 08:42:00,
2013-05-24 04:52:00,36.0,33.0,-100.00,North,0,4.0,-999.0,87,-99.99,,,-99.99,0.000000,,2013-05-24 08:52:00,
2013-05-24 05:00:00,35.0,32.0,-100.00,North,0,3.0,-999.0,88,-99.99,,,-99.99,0.000000,,2013-05-24 09:00:00,
2013-05-24 05:33:00,35.0,32.0,-100.00,North,0,3.0,-999.0,88,-99.99,,,-99.99,0.000000,,2013-05-24 09:33:00,
2013-05-24 05:42:00,35.0,32.0,-100.00,North,0,3.0,-999.0,88,-99.99,,,-99.99,0.000000,,2013-05-24 09:42:00,
2013-05-24 05:53:00,35.0,32.0,-100.00,North,0,3.0,-999.0,88,-99.99,,,-99.99,0.000000,,2013-05-24 09:53:00,
2013-05-24 06:00:00,34.0,32.0,-100.00,North,0,3.0,-999.0,89,-99.99,,,-99.99,0.000000,,2013-05-24 10:00:00,
2013-05-24 06:33:00,34.0,32.0,-100.00,North,0,3.0,-999.0,89,-99.99,,,-99.99,0.000000,,2013-05-24 10:33:00,
2013-05-24 06:42:00,34.0,32.0,-100.00,North,0,3.0,-999.0,89,-99.99,,,-99.99,0.000000,,2013-05-24 10:42:00,
2013-05-24 06:53:00,34.0,32.0,-100.00,North,0,3.0,-999.0,89,-99.99,,,-99.99,0.000000,,2013-05-24 10:53:00,
2013-05-24 07:00:00,34.0,32.0,-100.00,NNW,337,3.0,-999.0,90,-99.99,,,-99.99,26.680000,,2013-05-24 11:00:00,
2013-05-24 07:32:00,34.0,32.0,-100.00,NNW,337,3.0,-999.0,90,-99.99,,,-99.99,26.680000,,2013-05-24 11:32:00,
2013-05-24 07:42:00,34.0,32.0,-100.00,NNW,337,3.0,-999.0,90,-99.99,,,-99.99,26.680000,,2013-05-24 11:42:00,
2013-05-24 07:52:00,34.0,32.0,-100.00,NNW,337,3.0,-999.0,90,-99.99,,,-99.99,26.680000,,2013-05-24 11:52:00,
2013-05-24 08:00:00,40.0,35.0,-100.00,North,0,3.0,-999.0,82,-99.99,,,-99.99,169.360001,,2013-05-24 12:00:00,
2013-05-24 08:33:00,40.0,35.0,-100.00,North,0,3.0,-999.0,82,-99.99,,,-99.99,169.360001,,2013-05-24 12:33:00,
2013-05-24 08:42:00,40.0,35.0,-100.00,North,0,3.0,-999.0,82,-99.99,,,-99.99,169.360001,,2013-05-24 12:42:00,
2013-05-24 08:52:00,40.0,35.0,-100.00,North,0,3.0,-999.0,82,-99.99,,,-99.99,169.360001,,2013-05-24 12:52:00,
2013-05-24 09:00:00,43.0,35.0,-100.00,NNE,22,5.0,-999.0,71,-99.99,,,-99.99,348.000000,,2013-05-24 13:00:00,
2013-05-24 09:32:00,43.0,35.0,-100.00,NNE,22,5.0,-999.0,71,-99.99,,,-99.99,348.000000,,2013-05-24 13:32:00,
2013-05-24 09:42:00,43.0,35.0,-100.00,NNE,22,5.0,-999.0,71,-99.99,,,-99.99,348.000000,,2013-05-24 13:42:00,
2013-05-24 09:52:00,43.0,35.0,-100.00,NNE,22,5.0,-999.0,71,-99.99,,,-99.99,348.000000,,2013-05-24 13:52:00,
2013-05-24 10:00:00,48.0,37.0,-100.00,North,0,3.0,-999.0,64,-99.99,,,-99.99,528.960022,,2013-05-24 14:00:00,
2013-05-24 10:32:00,48.0,37.0,-100.00,North,0,3.0,-999.0,64,-99.99,,,-99.99,528.960022,,2013-05-24 14:32:00,
2013-05-24 10:42:00,48.0,37.0,-100.00,North,0,3.0,-999.0,64,-99.99,,,-99.99,528.960022,,2013-05-24 14:42:00,
2013-05-24 10:52:00,48.0,37.0,-100.00,North,0,3.0,-999.0,64,-99.99,,,-99.99,528.960022,,2013-05-24 14:52:00,
2013-05-24 11:00:00,52.0,38.0,-100.00,NNW,337,4.0,-999.0,57,-99.99,,,-99.99,689.039978,,2013-05-24 15:00:00,
2013-05-24 11:33:00,52.0,38.0,-100.00,NNW,337,4.0,-999.0,57,-99.99,,,-99.99,689.039978,,2013-05-24 15:33:00,
2013-05-24 11:43:00,52.0,38.0,-100.00,NNW,337,4.0,-999.0,57,-99.99,,,-99.99,689.039978,,2013-05-24 15:43:00,
2013-05-24 11:52:00,52.0,38.0,-100.00,NNW,337,4.0,-999.0,57,-99.99,,,-99.99,689.039978,,2013-05-24 15:52:00,
2013-05-24 14:00:00,54.0,39.0,-100.00,NW,315,7.0,-999.0,57,-99.99,,,-99.99,919.880005,,2013-05-24 18:00:00,
2013-05-24 14:32:00,54.0,39.0,-100.00,NW,315,7.0,-999.0,57,-99.99,,,-99.99,919.880005,,2013-05-24 18:32:00,
2013-05-24 14:42:00,54.0,39.0,-100.00,NW,315,7.0,-999.0,57,-99.99,,,-99.99,919.880005,,2013-05-24 18:42:00,
2013-05-24 14:52:00,54.0,39.0,-100.00,NW,315,7.0,-999.0,57,-99.99,,,-99.99,919.880005,,2013-05-24 18:52:00,
2013-05-24 16:00:00,55.0,38.0,-100.00,NW,315,7.0,-999.0,53,-99.99,,,-99.99,838.679993,,2013-05-24 20:00:00,
2013-05-24 16:32:00,55.0,38.0,-100.00,NW,315,7.0,-999.0,53,-99.99,,,-99.99,838.679993,,2013-05-24 20:32:00,
2013-05-24 16:42:00,55.0,38.0,-100.00,NW,315,7.0,-999.0,53,-99.99,,,-99.99,838.679993,,2013-05-24 20:42:00,
2013-05-24 16:52:00,55.0,38.0,-100.00,NW,315,7.0,-999.0,53,-99.99,,,-99.99,838.679993,,2013-05-24 20:52:00,
2013-05-24 17:00:00,55.0,37.0,-100.00,NW,315,6.0,-999.0,50,-99.99,,,-99.99,727.320007,,2013-05-24 21:00:00,
2013-05-24 17:33:00,55.0,37.0,-100.00,NW,315,6.0,-999.0,50,-99.99,,,-99.99,727.320007,,2013-05-24 21:33:00,
2013-05-24 17:43:00,55.0,37.0,-100.00,NW,315,6.0,-999.0,50,-99.99,,,-99.99,727.320007,,2013-05-24 21:43:00,
2013-05-24 17:53:00,55.0,37.0,-100.00,NW,315,6.0,-999.0,50,-99.99,,,-99.99,727.320007,,2013-05-24 21:53:00,
2013-05-24 18:00:00,56.0,35.0,-100.00,NW,315,5.0,-999.0,46,-99.99,,,-99.99,578.840027,,2013-05-24 22:00:00,
2013-05-24 18:33:00,56.0,35.0,-100.00,NW,315,5.0,-999.0,46,-99.99,,,-99.99,578.840027,,2013-05-24 22:33:00,
2013-05-24 18:42:00,56.0,35.0,-100.00,NW,315,5.0,-999.0,46,-99.99,,,-99.99,578.840027,,2013-05-24 22:42:00,
2013-05-24 18:52:00,56.0,35.0,-100.00,NW,315,5.0,-999.0,46,-99.99,,,-99.99,578.840027,,2013-05-24 22:52:00,
2013-05-24 19:00:00,56.0,35.0,-100.00,NNW,337,4.0,-999.0,45,-99.99,,,-99.99,406.000000,,2013-05-24 23:00:00,
2013-05-24 19:32:00,56.0,35.0,-100.00,NNW,337,4.0,-999.0,45,-99.99,,,-99.99,406.000000,,2013-05-24 23:32:00,
2013-05-24 19:42:00,56.0,35.0,-100.00,NNW,337,4.0,-999.0,45,-99.99,,,-99.99,406.000000,,2013-05-24 23:42:00,
2013-05-24 19:52:00,56.0,35.0,-100.00,NNW,337,4.0,-999.0,45,-99.99,,,-99.99,406.000000,,2013-05-24 23:52:00,
2013-05-24 20:00:00,53.0,35.0,-100.00,NNW,337,3.0,-999.0,50,-99.99,,,-99.99,208.800003,,2013-05-25 00:00:00,
2013-05-24 20:32:00,53.0,35.0,-100.00,NNW,337,3.0,-999.0,50,-99.99,,,-99.99,208.800003,,2013-05-25 00:32:00,
2013-05-24 20:42:00,53.0,35.0,-100.00,NNW,337,3.0,-999.0,50,-99.99,,,-99.99,208.800003,,2013-05-25 00:42:00,
2013-05-24 20:52:00,53.0,35.0,-100.00,NNW,337,3.0,-999.0,50,-99.99,,,-99.99,208.800003,,2013-05-25 00:52:00,
2013-05-24 21:00:00,47.0,37.0,-100.00,NW,315,2.0,-999.0,67,-99.99,,,-99.99,67.279999,,2013-05-25 01:00:00,
2013-05-24 21:32:00,47.0,37.0,-100.00,NW,315,2.0,-999.0,67,-99.99,,,-99.99,67.279999,,2013-05-25 01:32:00,
2013-05-24 21:42:00,47.0,37.0,-100.00,NW,315,2.0,-999.0,67,-99.99,,,-99.99,67.279999,,2013-05-25 01:42:00,
2013-05-24 21:52:00,47.0,37.0,-100.00,NW,315,2.0,-999.0,67,-99.99,,,-99.99,67.279999,,2013-05-25 01:52:00,
2013-05-24 22:00:00,40.0,36.0,-100.00,WNW,292,3.0,-999.0,82,-99.99,,,-99.99,1.160000,,2013-05-25 02:00:00,
2013-05-24 22:32:00,40.0,36.0,-100.00,WNW,292,3.0,-999.0,82,-99.99,,,-99.99,1.160000,,2013-05-25 02:32:00,
2013-05-24 22:42:00,40.0,36.0,-100.00,WNW,292,3.0,-999.0,82,-99.99,,,-99.99,1.160000,,2013-05-25 02:42:00,
2013-05-24 22:52:00,40.0,36.0,-100.00,WNW,292,3.0,-999.0,82,-99.99,,,-99.99,1.160000,,2013-05-25 02:52:00,
2013-05-24 23:00:00,38.0,35.0,-100.00,WNW,292,2.0,-999.0,88,-99.99,,,-99.99,0.000000,,2013-05-25 03:00:00,
2013-05-24 23:33:00,38.0,35.0,-100.00,WNW,292,2.0,-999.0,88,-99.99,,,-99.99,0.000000,,2013-05-25 03:33:00,
2013-05-24 23:43:00,38.0,35.0,-100.00,WNW,292,2.0,-999.0,88,-99.99,,,-99.99,0.000000,,2013-05-25 03:43:00,
2013-05-24 23:53:00,38.0,35.0,-100.00,WNW,292,2.0,-999.0,88,-99.99,,,-99.99,0.000000,,2013-05-25 03:53:00,